Location: Cantaing
(50.1487°N, 3.1675°E)
Time: 20:21:22
(UTC+00:00)

Cosmos 1833 Rocket - Pass Details

Date: 14 January 2026
Orbit: 832 x 838 km, 71.0° (Epoch: 13 February)

Event Time Altitude Azimuth Distance (km) Brightness Sun altitude
Exits shadow 03:43:27 32° 87° (E) 1,418 4.2 -37.3°
Drops below altitude 10° 03:46:59 10° 118° (ESE) 2,445 5.6 -36.7°
Sets 03:49:35 0° 126° (SE) 3,375 6.3 -36.3°
